TimeCDT,TemperatureF,Dew PointF,Humidity,Sea Level PressureIn,VisibilityMPH,Wind Direction,Wind SpeedMPH,Gust SpeedMPH,PrecipitationIn,Events,Conditions,WindDirDegrees,DateUTC
12:14 AM,57.2,55.4,94,29.81,10.0,WNW,6.9,-,N/A,,Overcast,300,2012-10-24 05:14:00
12:34 AM,55.4,53.6,94,29.81,10.0,WNW,4.6,-,N/A,,Overcast,290,2012-10-24 05:34:00
1:14 AM,55.4,53.6,94,29.83,10.0,West,4.6,-,N/A,,Mostly Cloudy,280,2012-10-24 06:14:00
1:34 AM,55.4,53.6,94,29.85,10.0,NW,5.8,-,N/A,,Overcast,310,2012-10-24 06:34:00
1:54 AM,55.4,53.6,94,29.83,7.0,North,5.8,-,N/A,,Overcast,360,2012-10-24 06:54:00
2:14 AM,53.6,51.8,94,29.84,10.0,North,11.5,-,N/A,,Overcast,10,2012-10-24 07:14:00
2:34 AM,53.6,50.0,88,29.84,10.0,North,16.1,21.9,N/A,,Overcast,360,2012-10-24 07:34:00
2:54 AM,51.8,48.2,88,29.85,10.0,North,13.8,20.7,N/A,,Overcast,10,2012-10-24 07:54:00
3:14 AM,51.8,48.2,88,29.86,10.0,North,13.8,17.3,N/A,,Overcast,360,2012-10-24 08:14:00
3:34 AM,50.0,48.2,94,29.86,10.0,North,10.4,-,N/A,,Mostly Cloudy,360,2012-10-24 08:34:00
3:54 AM,50.0,48.2,94,29.85,10.0,North,9.2,-,N/A,,Mostly Cloudy,10,2012-10-24 08:54:00
4:14 AM,48.2,48.2,100,29.85,10.0,North,9.2,-,N/A,,Overcast,10,2012-10-24 09:14:00
4:34 AM,48.2,46.4,93,29.86,10.0,North,5.8,-,N/A,,Overcast,350,2012-10-24 09:34:00
4:54 AM,48.2,46.4,93,29.86,10.0,North,5.8,-,N/A,,Overcast,350,2012-10-24 09:54:00
5:14 AM,48.2,46.4,93,29.87,10.0,NNW,5.8,-,N/A,,Overcast,340,2012-10-24 10:14:00
5:34 AM,46.4,46.4,100,29.87,10.0,North,6.9,-,N/A,,Mostly Cloudy,350,2012-10-24 10:34:00
5:54 AM,46.4,44.6,93,29.87,7.0,North,6.9,-,N/A,,Scattered Clouds,360,2012-10-24 10:54:00
6:14 AM,44.6,44.6,100,29.89,7.0,North,5.8,-,N/A,,Clear,350,2012-10-24 11:14:00
6:34 AM,44.6,44.6,100,29.91,10.0,North,8.1,-,N/A,,Mostly Cloudy,350,2012-10-24 11:34:00
6:54 AM,46.4,44.6,93,29.91,10.0,North,10.4,-,N/A,,Overcast,10,2012-10-24 11:54:00
7:14 AM,46.4,46.4,100,29.91,10.0,NNE,8.1,-,N/A,,Overcast,30,2012-10-24 12:14:00
7:34 AM,48.2,46.4,93,29.91,10.0,NNE,11.5,-,N/A,,Overcast,30,2012-10-24 12:34:00
7:54 AM,48.2,46.4,93,29.91,10.0,NNE,10.4,-,N/A,,Overcast,30,2012-10-24 12:54:00
8:14 AM,48.2,46.4,93,29.91,10.0,NNE,13.8,18.4,N/A,,Overcast,30,2012-10-24 13:14:00
8:34 AM,46.4,46.4,100,29.91,10.0,NNE,12.7,-,N/A,,Overcast,20,2012-10-24 13:34:00
8:54 AM,46.4,44.6,93,29.91,10.0,NNE,12.7,-,N/A,,Overcast,30,2012-10-24 13:54:00
9:14 AM,46.4,44.6,93,29.91,10.0,NNE,16.1,-,N/A,,Overcast,30,2012-10-24 14:14:00
9:34 AM,46.4,44.6,93,29.90,10.0,NE,12.7,-,N/A,,Overcast,40,2012-10-24 14:34:00
9:54 AM,46.4,44.6,93,29.90,10.0,NNE,10.4,-,N/A,,Overcast,20,2012-10-24 14:54:00
10:13 AM,44.6,42.8,93,29.90,10.0,NNE,10.4,-,N/A,,Overcast,20,2012-10-24 15:13:00
10:34 AM,46.4,42.8,87,29.91,10.0,North,10.4,-,N/A,,Overcast,360,2012-10-24 15:34:00
10:54 AM,46.4,42.8,87,29.92,10.0,North,10.4,-,N/A,,Overcast,10,2012-10-24 15:54:00
11:14 AM,46.4,42.8,87,29.92,10.0,North,10.4,-,N/A,,Overcast,10,2012-10-24 16:14:00
11:32 AM,46.4,42.8,87,29.92,10.0,North,10.4,-,N/A,,Overcast,10,2012-10-24 16:32:00
11:54 AM,46.4,42.8,87,29.92,10.0,North,13.8,-,N/A,,Mostly Cloudy,360,2012-10-24 16:54:00
12:14 PM,46.4,42.8,87,29.91,10.0,North,11.5,-,N/A,,Mostly Cloudy,10,2012-10-24 17:14:00
12:34 PM,48.2,42.8,82,29.88,10.0,North,17.3,20.7,N/A,,Mostly Cloudy,10,2012-10-24 17:34:00
12:54 PM,48.2,42.8,82,29.88,10.0,North,16.1,23.0,N/A,,Overcast,10,2012-10-24 17:54:00
1:14 PM,48.2,42.8,82,29.87,10.0,North,17.3,-,N/A,,Overcast,10,2012-10-24 18:14:00
1:34 PM,48.2,42.8,82,29.87,10.0,North,16.1,27.6,N/A,,Overcast,10,2012-10-24 18:34:00
1:54 PM,48.2,42.8,82,29.87,10.0,North,15.0,19.6,N/A,,Overcast,10,2012-10-24 18:54:00
2:14 PM,48.2,42.8,82,29.86,10.0,North,19.6,25.3,N/A,,Overcast,10,2012-10-24 19:14:00
2:34 PM,48.2,42.8,82,29.86,10.0,North,15.0,23.0,N/A,,Mostly Cloudy,10,2012-10-24 19:34:00
2:54 PM,48.2,39.2,71,29.86,10.0,North,16.1,24.2,N/A,,Overcast,10,2012-10-24 19:54:00
3:14 PM,46.4,39.2,76,29.87,10.0,North,17.3,23.0,N/A,,Overcast,360,2012-10-24 20:14:00
3:34 PM,46.4,39.2,76,29.87,10.0,North,16.1,23.0,N/A,,Overcast,10,2012-10-24 20:34:00
4:14 PM,46.4,39.2,76,29.87,10.0,North,15.0,24.2,N/A,,Overcast,10,2012-10-24 21:14:00
4:34 PM,46.4,39.2,76,29.87,10.0,NNE,19.6,26.5,N/A,,Overcast,20,2012-10-24 21:34:00
4:54 PM,46.4,39.2,76,29.86,10.0,NNE,17.3,-,N/A,,Overcast,20,2012-10-24 21:54:00
5:14 PM,44.6,39.2,81,29.86,10.0,North,19.6,26.5,N/A,,Overcast,10,2012-10-24 22:14:00
5:34 PM,44.6,39.2,81,29.86,10.0,NNE,17.3,23.0,N/A,,Overcast,20,2012-10-24 22:34:00
5:54 PM,44.6,39.2,81,29.85,10.0,NNE,16.1,24.2,N/A,,Overcast,20,2012-10-24 22:54:00
6:14 PM,44.6,39.2,81,29.86,10.0,NNE,15.0,19.6,N/A,,Overcast,20,2012-10-24 23:14:00
6:34 PM,44.6,39.2,81,29.87,10.0,North,12.7,21.9,N/A,,Overcast,10,2012-10-24 23:34:00
6:54 PM,42.8,39.2,87,29.87,10.0,North,13.8,21.9,N/A,,Overcast,10,2012-10-24 23:54:00
7:14 PM,42.8,39.2,87,29.88,10.0,North,10.4,-,N/A,,Overcast,10,2012-10-25 00:14:00
7:54 PM,42.8,39.2,87,29.89,10.0,North,17.3,21.9,N/A,,Overcast,10,2012-10-25 00:54:00
8:14 PM,42.8,39.2,87,29.90,10.0,North,18.4,21.9,N/A,,Overcast,360,2012-10-25 01:14:00
8:34 PM,42.8,39.2,87,29.90,10.0,North,15.0,-,N/A,,Overcast,10,2012-10-25 01:34:00
8:54 PM,42.8,39.2,87,29.91,10.0,North,15.0,20.7,N/A,,Overcast,10,2012-10-25 01:54:00
9:14 PM,41.0,39.2,93,29.92,10.0,North,15.0,-,N/A,,Overcast,360,2012-10-25 02:14:00
9:34 PM,41.0,39.2,93,29.92,10.0,North,15.0,25.3,N/A,,Overcast,360,2012-10-25 02:34:00
9:54 PM,41.0,37.4,87,29.92,10.0,North,17.3,25.3,N/A,,Overcast,10,2012-10-25 02:54:00
10:14 PM,41.0,37.4,87,29.92,10.0,North,18.4,26.5,N/A,,Overcast,10,2012-10-25 03:14:00
10:33 PM,39.2,37.4,93,29.91,10.0,North,15.0,24.2,N/A,,Overcast,10,2012-10-25 03:33:00
10:54 PM,39.2,37.4,93,29.91,10.0,North,19.6,29.9,N/A,,Overcast,10,2012-10-25 03:54:00
11:14 PM,39.2,37.4,93,29.91,10.0,North,21.9,28.8,N/A,,Overcast,10,2012-10-25 04:14:00
11:33 PM,39.2,37.4,93,29.90,10.0,North,19.6,26.5,N/A,,Overcast,10,2012-10-25 04:33:00
11:54 PM,39.2,37.4,93,29.90,10.0,NNE,18.4,24.2,N/A,,Overcast,20,2012-10-25 04:54:00